Airfield :
LOGIN :

Register | Disclaimer

   EN    FR    IT 

 










Legend :    VFR   Marginal VFR   IFR   Intensive IFR   Very Intensive IFR
Visi :
Ceiling :
>= 8 km
>= 3000ft
5 to 8 km
1000 to 3000 ft
1500m to 5 km
500 to 1000 ft
800 to 1500m
200 to 500 ft
< 800m
< 200 ft
Symbols :   Thunderstorms  Fog  Heavy snow  Heavy precipitations  Wind > 20 kt
SIGMETs :     Misc.  Thunderstorms  Icing  Turbulence  Mountain Waves  Volcanic Ashes







- Airport Elevation : 574 ft
- IATA code : NDR


GMMW - Nador El Aroui

CURRENT METAR :
  • 160700Z 27006KT 240V300 6000 SCT017 SCT026 23/19 Q1016 NOSIG

EXPIRED METARs :
  • 160600Z 28005KT 250V310 6000 SCT015 SCT026 22/19 Q1016 NOSIG
  • 160500Z 30003KT 250V340 8000 FEW013 SCT023 21/18 Q1016 NOSIG

TAF TAF GMMW
Valid from the 16 at 06:00 until the 17 at 12:00 UTC


160500Z 1606/1712 VRB02KT 8000 FEW013 SCT023
BECMG 1610/1612 02008KT SCT020
No reported NOTAMs for that airfield.



MET'MAP, your aeronautical weather chart ! - Copyright ORBIFLY December 2007 - Disclaimer

ORBIFLY MET'MAP TEAM :

Programming & Development : Alexandra Zaïnal
Concept & Development : Baudouin d'Aumeries
Co-Development & Prog : Marc-Olivier Méhu
Technical & hardware support : Manuel Goepfert

Contact : metmap@orbifly.com




SOURCES & CREDITS :

   NOAA